Погода в Чаплыгине

Россия / Липецкая область     53°14′25″N   39°58′01″E
темп.,
°C
ветер,
м/с
пор.,
м/с
влажн.,
%
обл.,
%
осадки,
мм/ч
давл.,
гПа
погр.,
м
29 июля, чт
чт2900:00+19ю2677100 0.1 1012179
03:00+18ю3580100 0.2 1011124
06:00+18юз37825 0.0 1010212
09:00+24зюз46555 0.0 1009707
12:00+28з685069 0.2 10082018
15:00+27зюз6850100 0.3 1007844
18:00+27з594998 0.0 1007554
21:00+22зюз11666 0.0 100711
30 июля, пт
пт3000:00+20юз227130 0.0 100822
03:00+19ююз34755 0.0 100754
06:00+20ю35727 0.0 100797
09:00+27ююз575091 0.1 1006719
12:00+30юз6842100 0.0 10051893
15:00+30зюз7944100 0.0 10042333
18:00+29зсз68450 0.0 10041667
21:00+22зсз37700 0.0 1005144
31 июля, сб
сб3100:00+20зсз35780 0.0 100791
03:00+18з36800 0.0 100795
06:00+19з39720 0.0 1007245
09:00+24зсз684588 0.0 10091113
12:00+27зсз68330 0.0 10092228
15:00+29з69311 0.0 10082868
18:00+29з483654 0.0 10082058
21:00+23сз225239 0.0 101013
1 августа, вс
вс100:00+20зсз226396 0.0 101117
03:00+18з226933 0.0 101212
06:00+19юз23695 0.0 101266
09:00+26ююз45470 0.0 1012630
12:00+31юз573210 0.0 10112687
15:00+33зюз68259 0.0 10103305
18:00+32зюз57286 0.0 10091093
21:00+25юз46400 0.0 100992
2 августа, пн
пн200:00+23ююз47485 0.0 1009110
03:00+21ююз3964100 0.1 1009162
06:00+22ююз396619 0.0 1010240
09:00+27юз455066 0.0 1009691
12:00+33юз583261 0.0 10082421
15:00+35зюз692648 0.0 10063454
18:00+31зюз5933100 0.1 1006445
21:00+25ююв334986 0.2 100520